"Pseudo-MPEC" for P20XG8h

Created 2020 Feb 27 16:07:23 UT using Find_Orb

Click here for an explanation of pseudo-MPECs

 
 Astrometry: 
     P20XG8h  C2020 02 25Sk/238Mjnlf6+dY,1bVAstrometry)$d6r7_!bG..1@AIHu:AZ,'F52
     P20XG8h  C2020 02 25xe3/(il`-(XZ?=5\?CDPc?S1;m(\(4cTPj6t\v[eT;^LP@kMu7^NF52
     P20XG8h  C2020 02 25yv*5$sS*')N=W1m9P!.4M9/rfMm#1BddTv]aZdj/[@N;pP#^WmP)F52
     P20XG8h  C2020 02 26uw``?@%7+YgB@H-dWh@wq5G!9+XUSb8N`ShYsmK$8!`.eqP_H!uoW85
     P20XG8h  C2020 02 264U5CbQ6jkiXKbLPARBB-)*rT41#6,Ll@''i3TY$Cl)_YJW_`)9u;W85
     P20XG8h  C2020 02 26p1!C#BJ_:nLn'P7sZPkm1pI3'.teIZrZ[;7W@Pqh?o-VCgah4r8^W85
     P20XG8h  C2020 02 26+@FY_(?uTj.fredacted;d8]Ro#3ECt3WFLo,Fe+H$mX8x?\/491W85
     P20XG8h ^C2020 02 26.62579215 37 22.783-03 59 54.66   ~2QHq 20.15GVNEOCP568
     P20XG8h ^C2020 02 26.62674615 37 22.816-03 59 55.34   ~2QHq 20.15GVNEOCP568
     P20XG8h ^C2020 02 26.62769315 37 22.849-03 59 56.02   ~2QHq 20.16GVNEOCP568
     P20XG8h IC2020 02 276VYUCj!I`-IMTtO2BmEZtC69YE'rV=SfP.d@c3q7(xkWMXy@#3n#L01
     P20XG8h pC2020 02 27aZclickIh,Y+_[G1+\\B?Zhv-FO'#bv#e]]hLj1)VG+t#%_RH$f6L01
     P20XG8h KC2020 02 27s6OT9kP1hSnDU%'eL2_O(?iZgmFWHsmQN,CXH.anqN(\hereT:v^L01
     P20XG8h KC2020 02 27C;MW\@XmhQ`@YF=lHKlKf;%]i-tCJ'E?TVUO4H=@.7yTTEY8'F--L01
     P20XG8h KC2020 02 27]v:1sp[UoTcLfor/l:WdZ?!4s0YPiK1i2Mb38\)Nky(.%8!?IeTiL01
     P20XG8h KC2020 02 27@BPUF@[XcmP6VcOlG#]_EYQFR!e,D,(:\^aV?s@2I0hg9ZhpqBV=711
     P20XG8h KC2020 02 27!a=-)n`ivU%Zp6SiVexplanationfl@.3ZCUP:w`1RHO`d2T%U*4711
     P20XG8h KC2020 02 27Ze*prM8?GG-[Dbe8:LJlNS,l?`Ktk_.0iY\_u6`vwu@_aXyg(F;5711

Station data:
(568) Mauna Kea  (N19.826116 W155.472200)  US/Hawaii.
(711) McDonald Observatory, Fort Davis  (N30.671481 W104.021500)  US/Texas.
   0.76-m f/3.0 reflector.
(F52) Pan-STARRS 2, Haleakala  (N20.707384 W156.255910)  US/Hawaii. 1.8-m
   Ritchey-Chrétien + CCD.
(L01) Višnjan Observatory, Tičan  (N45.290900 E13.749300)  Croatia.
   Observers K. Korlević, E. Pettarin. Measurer E. Pettarin. 1.0-m f/2.9
   reflector + CCD.
(W85) Cerro Tololo-LCO A  (S30.167407 W70.804810)  Chile.  Observers T.
   Lister, S. Greenstreet, E. Gomez. Measurer T. Lister. 1.0-m f/8
   Ritchey-Chrétien + CCD.

Orbital elements:  P20XG8h
   Perihelion 2020 Feb 9.337091 +/- 37.8 TT =  8:05:24 (JD 2458888.837091)
Epoch 2020 Feb 27.0 TT = JDT 2458906.5   Earth MOID: 0.9682   AutoNEOCP
M   4.76211135 +/- 10               (J2000 ecliptic)
n   0.26961082 +/- 0.0321           Peri.  152.35112 +/- 15
a   2.37307338 +/- 0.188            Node    40.66480 +/- 0.7
e   0.1779401 +/- 0.0536            Incl.   32.96804 +/- 0.6
P   3.66                   H 16.8   G  0.15   U 10.4  
q 1.95080825 +/- 0.0327    Q 2.79533852 +/- 0.379
From 18 observations 2020 Feb. 25-27 (44.3 hr); mean residual 0".23
Residuals in arcseconds: 
200225 F52  .02+  .06-    200226 W85  .29-  .33+    200227 L01  .11+  .11-    
200225 F52  .09+  .01+    200226 568  .02+  .10-    200227 L01  .17+  .10+    
200225 F52  .08+  .00     200226 568  .02+  .10-    200227 L01  .71+  .26+    
200226 W85  .20-  .11-    200226 568  .02+  .11-    200227 711  .32-  .00     
200226 W85  .18-  .17+    200227 L01  .74+  .22-    200227 711  .35-  .04-    
200226 W85  .16-  .05-    200227 L01  .06-  .14+    200227 711  .18-  .03-    

Ephemerides (geocentric):
Date (UTC) HH   RA              Dec         delta   r     elong  mag " sig PA
---- -- -- --  -------------   -----------  ------ ------ -----  --- ---- ---
2020 02 27 16  15 38 00.428   -04 12 18.29  1.4531 1.9531 104.5 20.4 .203 101
2020 02 27 17  15 38 01.896   -04 12 48.27  1.4526 1.9531 104.6 20.4 .223  98
2020 02 27 18  15 38 03.362   -04 13 18.25  1.4522 1.9531 104.6 20.4 .244  96
2020 02 27 19  15 38 04.824   -04 13 48.24  1.4517 1.9532 104.6 20.4 .265  94
2020 02 27 20  15 38 06.283   -04 14 18.24  1.4512 1.9532 104.7 20.4 .288  93
2020 02 27 21  15 38 07.739   -04 14 48.25  1.4508 1.9532 104.7 20.4 .311  91
2020 02 27 22  15 38 09.192   -04 15 18.27  1.4503 1.9532 104.7 20.4 .336  90
2020 02 27 23  15 38 10.641   -04 15 48.29  1.4498 1.9532 104.8 20.4 .362  89
2020 02 28 00  15 38 12.087   -04 16 18.33  1.4494 1.9532 104.8 20.4 .388  88
2020 02 28 01  15 38 13.531   -04 16 48.37  1.4489 1.9532 104.8 20.4 .416  87
2020 02 28 02  15 38 14.971   -04 17 18.42  1.4485 1.9532 104.9 20.4 .444  86
2020 02 28 03  15 38 16.407   -04 17 48.48  1.4480 1.9532 104.9 20.4 .473  85
2020 02 28 04  15 38 17.841   -04 18 18.55  1.4475 1.9533 104.9 20.4 .503  84
2020 02 28 05  15 38 19.271   -04 18 48.62  1.4471 1.9533 105.0 20.4 .534  84
2020 02 28 06  15 38 20.699   -04 19 18.71  1.4466 1.9533 105.0 20.4 .566  83
2020 02 28 07  15 38 22.123   -04 19 48.80  1.4461 1.9533 105.0 20.4 .599  83
2020 02 28 08  15 38 23.543   -04 20 18.90  1.4457 1.9533 105.1 20.4 .633  82
2020 02 28 09  15 38 24.961   -04 20 49.01  1.4452 1.9533 105.1 20.4 .668  82
2020 02 28 10  15 38 26.375   -04 21 19.13  1.4447 1.9533 105.1 20.4 .703  81
2020 02 28 11  15 38 27.787   -04 21 49.26  1.4443 1.9533 105.2 20.4 .740  81
2020 02 28 12  15 38 29.195   -04 22 19.40  1.4438 1.9533 105.2 20.4 .777  80
2020 02 28 13  15 38 30.599   -04 22 49.54  1.4433 1.9534 105.2 20.4 .815  80
2020 02 28 14  15 38 32.001   -04 23 19.70  1.4429 1.9534 105.3 20.4 .855  80
2020 02 28 15  15 38 33.399   -04 23 49.86  1.4424 1.9534 105.3 20.4 .895  79
2020 02 28 16  15 38 34.795   -04 24 20.03  1.4419 1.9534 105.3 20.4 .936  79
2020 02 28 17  15 38 36.187   -04 24 50.21  1.4415 1.9534 105.4 20.4 .978  79
2020 02 28 18  15 38 37.575   -04 25 20.40  1.4410 1.9534 105.4 20.4 1.02  78
2020 02 28 19  15 38 38.961   -04 25 50.60  1.4405 1.9534 105.4 20.4 1.06  78
2020 02 28 20  15 38 40.343   -04 26 20.81  1.4401 1.9534 105.5 20.4 1.11  78
2020 02 28 21  15 38 41.722   -04 26 51.02  1.4396 1.9534 105.5 20.4 1.15  78
2020 02 28 22  15 38 43.098   -04 27 21.25  1.4392 1.9535 105.5 20.4 1.20  78
2020 02 28 23  15 38 44.470   -04 27 51.48  1.4387 1.9535 105.6 20.4 1.25  77
2020 02 29 00  15 38 45.840   -04 28 21.72  1.4382 1.9535 105.6 20.4 1.30  77
2020 02 29 01  15 38 47.206   -04 28 51.97  1.4378 1.9535 105.6 20.4 1.34  77
2020 02 29 02  15 38 48.569   -04 29 22.24  1.4373 1.9535 105.7 20.4 1.39  77
2020 02 29 03  15 38 49.928   -04 29 52.50  1.4368 1.9535 105.7 20.4 1.45  77
2020 02 29 04  15 38 51.285   -04 30 22.78  1.4364 1.9535 105.7 20.4 1.50  76
2020 02 29 05  15 38 52.638   -04 30 53.07  1.4359 1.9535 105.8 20.4 1.55  76
2020 02 29 06  15 38 53.988   -04 31 23.37  1.4354 1.9535 105.8 20.3 1.60  76
2020 02 29 07  15 38 55.334   -04 31 53.67  1.4350 1.9536 105.8 20.3 1.66  76
2020 02 29 08  15 38 56.677   -04 32 23.99  1.4345 1.9536 105.9 20.3 1.71  76
2020 02 29 09  15 38 58.018   -04 32 54.31  1.4340 1.9536 105.9 20.3 1.77  76
2020 02 29 10  15 38 59.354   -04 33 24.64  1.4336 1.9536 105.9 20.3 1.83  76
2020 02 29 11  15 39 00.688   -04 33 54.99  1.4331 1.9536 106.0 20.3 1.89  75
2020 02 29 12  15 39 02.018   -04 34 25.34  1.4327 1.9536 106.0 20.3 1.95  75
2020 02 29 13  15 39 03.345   -04 34 55.70  1.4322 1.9536 106.0 20.3 2.01  75
2020 02 29 14  15 39 04.669   -04 35 26.07  1.4317 1.9536 106.1 20.3 2.07  75
2020 02 29 15  15 39 05.989   -04 35 56.44  1.4313 1.9536 106.1 20.3 2.13  75